Regional Weather Roundup
Issued by NWS

Home | Current Version | Previous Version | Text Only | Print | Product List | Glossary On
Versions: 1 2 3 4 5 6 7 8 9 10 11 12 13 14 15 16 17 18 19 20 21 22 23 24 25 26 27
000
ASUS45 KBOI 170110
RWRID

IDAHO REGIONAL WEATHER ROUNDUP
NATIONAL WEATHER SERVICE BOISE ID
700 PM MDT WED AUG 16 2017

NOTE: "FAIR" INDICATES FEW OR NO CLOUDS BELOW 12000 FEET
WITH NO SIGNIFICANT WEATHER AND/OR OBSTRUCTIONS TO VISIBILITY

IDZ012-014-170200-
SOUTHWEST IDAHO


CITY           SKY/WX    TMP DP  RH WIND       PRES   REMARKS
BOISE          SUNNY     87  34  15 NW10      29.94F
CALDWELL       SUNNY     88  39  17 NW5       29.93F
MOUNTAIN HOME  SUNNY     89  39  17 N14       29.94F
$$

IDZ016-017-170200-
SOUTHCENTRAL IDAHO


CITY           SKY/WX    TMP DP  RH WIND       PRES   REMARKS
BURLEY         SUNNY     81  39  22 W9        30.00S
JEROME         SUNNY     84  39  20 W8        30.00F
TWIN FALLS     SUNNY     82  39  21 W5        30.01F
$$

IDZ019>023-170200-
SOUTHEAST IDAHO


CITY           SKY/WX    TMP DP  RH WIND       PRES   REMARKS
IDAHO FALLS    MOSUNNY   82  35  18 SW16G22   30.02F
POCATELLO      MOSUNNY   84  35  17 W13       30.02F
REXBURG        SUNNY     80  36  20 S9        30.02F
$$

IDZ006-010-011-018-031-032-170200-
CENTRAL IDAHO MOUNTAINS


CITY           SKY/WX    TMP DP  RH WIND       PRES   REMARKS
MCCALL         SUNNY     78  26  14 S5        30.05F
HAILEY         MOSUNNY   79  37  22 SW12G25   30.05F
STANLEY          N/A     75  32  20 W7        30.14F
SALMON         CLOUDY    84  42  22 N6        29.93F
CHALLIS        MOSUNNY   82  32  16 W12       30.00F
$$

IDZ002-004-006-007-026-170200-
NORTHERN IDAHO


CITY           SKY/WX    TMP DP  RH WIND       PRES   REMARKS
LEWISTON       SUNNY     87  41  19 NW12      29.90F
LOWELL           N/A     79  47  32 CALM      29.88F
COEUR D`ALENE  SUNNY     82  40  22 SW9       29.94F
MULLAN PASS    SUNNY     65  34  31 VRB5      30.13S
$$




USA.gov is the U.S. government's official web portal to all federal, state and local government web resources and services.